• In Uzbekistan
  • List of Countries
  • For 7 days
  • Water Temperature
  • Satellite Maps
  • Weather Map
  • Weather Widgets
  • user-avatar
    Login

    Hourly Weather Kinshasa

    Today, 17 July, Tuesday

    Time Temperature Precipitation Wind Pressure Humidity
    00:00 +22°C° 0 mm 1 mps 709 mmHg 93%
    01:00 +22°C° 0 mm 1 mps 709 mmHg 93%
    02:00 +22°C° 0 mm 1 mps 709 mmHg 93%
    03:00 +21°C° 0 mm 1 mps 709 mmHg 94%
    04:00 +19°C° 0 mm 0 mps 709 mmHg 94%
    05:00 +22°C° 0 mm 1 mps 709 mmHg 94%
    06:00 +22°C° 0 mm 1 mps 709 mmHg 93%
    07:00 +22°C° 0 mm 1 mps 709 mmHg 92%
    08:00 +24°C° 0 mm 1 mps 710 mmHg 82%
    09:00 +27°C° 0 mm 1 mps 710 mmHg 73%
    10:00 +29°C° 0 mm 2 mps 710 mmHg 63%
    11:00 +30°C° 0.2 mm 1 mps 710 mmHg 59%
    12:00 +31°C° 0.2 mm 1 mps 710 mmHg 56%
    13:00 +32°C° 0.2 mm 1 mps 709 mmHg 53%
    14:00 +32°C° 0.2 mm 1 mps 709 mmHg 56%
    15:00 +31°C° 0.2 mm 1 mps 708 mmHg 59%
    16:00 +31°C° 0.2 mm 1 mps 707 mmHg 62%
    17:00 +29°C° 0.4 mm 1 mps 707 mmHg 69%
    18:00 +27°C° 0.4 mm 1 mps 707 mmHg 76%
    19:00 +25°C° 0.4 mm 1 mps 707 mmHg 82%
    20:00 +24°C° 0.3 mm 1 mps 708 mmHg 86%
    21:00 +24°C° 0.3 mm 1 mps 708 mmHg 89%
    22:00 +23°C° 0.3 mm 1 mps 709 mmHg 93%
    23:00 +23°C° 1.3 mm 1 mps 709 mmHg 94%

    Tomorrow, 18 July, Wednesday

    Time Temperature Precipitation Wind Pressure Humidity
    00:00 +21°C° 1.3 mm 0 mps 709 mmHg 95%
    01:00 +20°C° 1.3 mm 0 mps 709 mmHg 96%
    02:00 +20°C° 2.7 mm 0 mps 709 mmHg 97%
    03:00 +20°C° 2.7 mm 0 mps 708 mmHg 97%
    04:00 +20°C° 2.7 mm 0 mps 708 mmHg 98%
    05:00 +20°C° 2.2 mm 0 mps 709 mmHg 98%
    06:00 +22°C° 2.2 mm 1 mps 709 mmHg 98%
    07:00 +22°C° 2.2 mm 1 mps 709 mmHg 98%
    08:00 +23°C° 1.3 mm 1 mps 710 mmHg 96%
    09:00 +24°C° 1.3 mm 2 mps 710 mmHg 94%
    10:00 +25°C° 1.3 mm 2 mps 711 mmHg 93%
    11:00 +27°C° 1.2 mm 2 mps 710 mmHg 86%
    12:00 +28°C° 1.2 mm 1 mps 710 mmHg 80%
    13:00 +29°C° 1.2 mm 1 mps 710 mmHg 74%
    14:00 +29°C° 0.6 mm 1 mps 709 mmHg 76%
    15:00 +28°C° 0.6 mm 1 mps 708 mmHg 78%
    16:00 +28°C° 0.6 mm 1 mps 708 mmHg 80%
    17:00 +27°C° 0.3 mm 1 mps 708 mmHg 85%
    18:00 +25°C° 0.3 mm 1 mps 708 mmHg 90%
    19:00 +24°C° 0.3 mm 1 mps 708 mmHg 95%
    20:00 +24°C° 0 mm 1 mps 708 mmHg 95%
    21:00 +23°C° 0 mm 1 mps 709 mmHg 96%
    22:00 +23°C° 0 mm 1 mps 709 mmHg 96%
    23:00 +23°C° 0 mm 1 mps 709 mmHg 96%

    Day after tomorrow, 19 July, Thursday

    Time Temperature Precipitation Wind Pressure Humidity
    00:00 +22°C° 0 mm 1 mps 709 mmHg 97%
    01:00 +22°C° 0 mm 1 mps 709 mmHg 97%
    02:00 +22°C° 0.1 mm 1 mps 708 mmHg 97%
    03:00 +21°C° 0.1 mm 1 mps 708 mmHg 97%
    04:00 +21°C° 0.1 mm 1 mps 708 mmHg 98%
    05:00 +22°C° 0 mm 1 mps 708 mmHg 97%
    06:00 +22°C° 0 mm 1 mps 709 mmHg 96%
    07:00 +22°C° 0 mm 1 mps 709 mmHg 95%
    08:00 +24°C° 0.6 mm 2 mps 709 mmHg 92%
    09:00 +25°C° 0.6 mm 2 mps 710 mmHg 89%
    10:00 +27°C° 0.6 mm 2 mps 710 mmHg 85%
    11:00 +28°C° 0.9 mm 2 mps 710 mmHg 82%
    12:00 +28°C° 0.9 mm 2 mps 709 mmHg 79%
    13:00 +29°C° 0.9 mm 2 mps 709 mmHg 77%
    14:00 +29°C° 1.9 mm 1 mps 708 mmHg 79%
    15:00 +28°C° 1.9 mm 1 mps 707 mmHg 81%
    16:00 +28°C° 1.9 mm 1 mps 707 mmHg 83%
    17:00 +27°C° 1 mm 1 mps 707 mmHg 87%
    18:00 +25°C° 1 mm 1 mps 707 mmHg 90%
    19:00 +24°C° 1 mm 1 mps 708 mmHg 93%
    20:00 +24°C° 0.6 mm 1 mps 708 mmHg 94%
    21:00 +23°C° 0.6 mm 1 mps 709 mmHg 94%
    22:00 +23°C° 0.6 mm 1 mps 709 mmHg 95%
    23:00 +22°C° 0 mm 1 mps 708 mmHg 95%

    20 July, Friday

    Time Temperature Precipitation Wind Pressure Humidity
    00:00 +22°C° 0 mm 1 mps 708 mmHg 96%
    01:00 +22°C° 0 mm 1 mps 707 mmHg 96%
    02:00 +21°C° 0 mm 1 mps 707 mmHg 96%
    03:00 +21°C° 0 mm 1 mps 707 mmHg 97%
    04:00 +21°C° 0 mm 1 mps 707 mmHg 97%
    05:00 +21°C° 0.1 mm 1 mps 708 mmHg 97%
    06:00 +22°C° 0.1 mm 1 mps 708 mmHg 96%
    07:00 +22°C° 0.1 mm 1 mps 709 mmHg 96%
    08:00 +23°C° 0.5 mm 1 mps 709 mmHg 93%
    09:00 +25°C° 0.5 mm 1 mps 709 mmHg 89%
    10:00 +26°C° 0.5 mm 1 mps 710 mmHg 86%
    11:00 +27°C° 1.6 mm 1 mps 709 mmHg 85%
    12:00 +27°C° 1.6 mm 1 mps 708 mmHg 83%
    13:00 +28°C° 1.6 mm 1 mps 708 mmHg 81%
    14:00 +28°C° 1.2 mm 1 mps 707 mmHg 80%
    15:00 +28°C° 1.2 mm 1 mps 707 mmHg 78%
    16:00 +28°C° 1.2 mm 1 mps 706 mmHg 77%
    17:00 +27°C° 0.3 mm 1 mps 707 mmHg 81%
    18:00 +25°C° 0.3 mm 1 mps 707 mmHg 86%
    19:00 +24°C° 0.3 mm 1 mps 707 mmHg 90%
    20:00 +24°C° 0 mm 1 mps 708 mmHg 91%
    21:00 +23°C° 0 mm 1 mps 708 mmHg 92%
    22:00 +23°C° 0 mm 1 mps 709 mmHg 93%
    23:00 +22°C° 0 mm 1 mps 708 mmHg 94%

    21 July, Saturday

    Time Temperature Precipitation Wind Pressure Humidity
    00:00 +22°C° 0 mm 1 mps 708 mmHg 95%
    01:00 +22°C° 0 mm 1 mps 708 mmHg 96%
    02:00 +22°C° 0 mm 1 mps 708 mmHg 96%
    03:00 +21°C° 0 mm 1 mps 707 mmHg 97%
    04:00 +21°C° 0 mm 1 mps 707 mmHg 97%
    05:00 +22°C° 0 mm 1 mps 708 mmHg 96%
    06:00 +22°C° 0 mm 1 mps 709 mmHg 95%
    07:00 +21°C° 0 mm 0 mps 709 mmHg 94%
    08:00 +25°C° 0.1 mm 1 mps 710 mmHg 85%
    09:00 +27°C° 0.1 mm 1 mps 710 mmHg 76%
    10:00 +29°C° 0.1 mm 1 mps 710 mmHg 67%
    11:00 +30°C° 1 mm 1 mps 710 mmHg 68%
    12:00 +30°C° 1 mm 1 mps 709 mmHg 69%
    13:00 +29°C° 1 mm 0 mps 708 mmHg 70%
    14:00 +29°C° 0.6 mm 0 mps 708 mmHg 68%
    15:00 +29°C° 0.6 mm 0 mps 707 mmHg 65%
    16:00 +29°C° 0.6 mm 0 mps 707 mmHg 62%
    17:00 +29°C° 0.4 mm 1 mps 707 mmHg 71%
    18:00 +27°C° 0.4 mm 1 mps 707 mmHg 79%
    19:00 +25°C° 0.4 mm 1 mps 708 mmHg 88%
    20:00 +24°C° 0.6 mm 1 mps 708 mmHg 91%
    21:00 +23°C° 0.6 mm 1 mps 708 mmHg 93%
    22:00 +23°C° 0.6 mm 1 mps 709 mmHg 96%
    23:00 +22°C° 0.5 mm 1 mps 709 mmHg 96%

    22 July, Sunday

    Time Temperature Precipitation Wind Pressure Humidity
    00:00 +22°C° 0.5 mm 1 mps 708 mmHg 96%
    01:00 +22°C° 0.5 mm 1 mps 708 mmHg 96%
    02:00 +22°C° 0.3 mm 1 mps 708 mmHg 97%
    03:00 +21°C° 0.3 mm 1 mps 708 mmHg 97%
    04:00 +21°C° 0.3 mm 1 mps 708 mmHg 97%
    05:00 +22°C° 0.2 mm 1 mps 709 mmHg 96%
    06:00 +22°C° 0.2 mm 1 mps 709 mmHg 96%
    07:00 +22°C° 0.2 mm 1 mps 709 mmHg 96%
    08:00 +24°C° 0 mm 1 mps 710 mmHg 86%
    09:00 +27°C° 0 mm 1 mps 710 mmHg 77%
    10:00 +29°C° 0 mm 1 mps 710 mmHg 68%
    11:00 +30°C° 0.2 mm 1 mps 710 mmHg 65%
    12:00 +31°C° 0.2 mm 1 mps 709 mmHg 62%
    13:00 +32°C° 0.2 mm 1 mps 709 mmHg 59%
    14:00 +31°C° 0.7 mm 1 mps 708 mmHg 65%
    15:00 +30°C° 0.7 mm 1 mps 707 mmHg 72%
    16:00 +29°C° 0.7 mm 1 mps 707 mmHg 79%
    17:00 +27°C° 0.5 mm 1 mps 707 mmHg 83%
    18:00 +26°C° 0.5 mm 1 mps 707 mmHg 88%
    19:00 +24°C° 0.5 mm 1 mps 707 mmHg 93%
    20:00 +24°C° 0.1 mm 1 mps 708 mmHg 94%
    21:00 +23°C° 0.1 mm 1 mps 708 mmHg 94%
    22:00 +23°C° 0.1 mm 1 mps 709 mmHg 95%
    23:00 +23°C° 0.6 mm 1 mps 708 mmHg 95%
    Show more